Location: Unspecified
(0.0000°N, 0.0000°E)
Time: 17:23:04
(UTC+00:00)

STARLINK 1058 - Pass Details

Date: 24 January 2020
Orbit: 548 x 551 km, 53.0° (Epoch: 22 January)

Event Time Altitude Azimuth Distance (km) Brightness Sun altitude
Exits shadow 05:17:09 12° 332° (NNW) 1,687 5.7 -12.9°
Drops below altitude 10° 05:17:46 10° 339° (NNW) 1,809 5.9 -12.8°
Sets 05:20:50 0° 4° (N) 2,697 7.0 -12.0°
